GW4674 Weather Reports


Display with metric or nautical units.
time (UTC)temp
F
wind
direction
speed
MPH
gust
MPH
rain 1hr
in
rain 24hr
in
rain mn
in
humidity
%
barometer
mb
20260904181542 81 29 13.0 16.0 0.00 0.27 0.27 65 1018.1
20260904181042 81 29 13.0 16.0 0.00 0.27 0.27 64 1018.0
20260904180536 81 29 13.0 16.0 0.00 0.27 0.27 61 1018.0
20260904180032 80 29 13.0 16.0 0.00 0.27 0.27 63 1018.0
20260904175532 78 29 13.0 16.0 0.00 0.27 0.27 66 1018.3
20260904175030 81 29 13.0 16.0 0.00 0.27 0.27 68 1018.2
20260904174525 79 29 13.0 16.0 0.00 0.27 0.27 62 1018.2
20260904174022 80 29 13.0 16.0 0.00 0.27 0.27 61 1018.2
20260904173516 79 29 13.0 16.0 0.00 0.27 0.27 61 1018.0
20260904173012 79 29 13.0 16.0 0.00 0.27 0.27 63 1018.0
20260904172508 78 29 13.0 16.0 0.00 0.27 0.27 61 1018.0
20260904172006 79 29 13.0 16.0 0.00 0.27 0.27 65 1018.0
20260904171502 80 29 13.0 16.0 0.00 0.27 0.27 64 1018.0
20260904170958 78 29 13.0 16.0 0.00 0.27 0.27 62 1018.1
20260904170453 80 29 13.0 16.0 0.00 0.27 0.27 63 1018.2
20260904165949 78 29 13.0 16.0 0.00 0.27 0.27 65 1018.2
20260904165448 78 29 13.0 16.0 0.00 0.27 0.27 64 1018.1
20260904164947 79 29 13.0 16.0 0.00 0.27 0.27 71 1018.3
20260904164442 78 29 13.0 16.0 0.00 0.27 0.27 67 1018.4
20260904163938 80 29 13.0 16.0 0.00 0.27 0.27 64 1018.2
20260904163437 79 29 13.0 16.0 0.00 0.27 0.27 63 1018.4
20260904162937 78 29 13.0 16.0 0.00 0.27 0.27 69 1018.2
20260904162433 79 29 13.0 16.0 0.00 0.27 0.27 70 1018.0
20260904161928 79 29 13.0 16.0 0.00 0.27 0.27 68 1018.2
20260904161423 78 29 13.0 16.0 0.00 0.27 0.27 66 1018.3
20260904160914 78 29 13.0 16.0 0.00 0.27 0.27 64 1018.4
20260904160408 78 29 13.0 16.0 0.00 0.27 0.27 66 1018.5
20260904155858 77 29 13.0 16.0 0.00 0.27 0.27 69 1018.4
20260904155357 78 29 13.0 16.0 0.00 0.27 0.27 74 1018.5
20260904154856 77 29 13.0 16.0 0.00 0.27 0.27 74 1018.7
20260904154351 78 29 13.0 16.0 0.00 0.27 0.27 72 1018.8
20260904153846 76 29 13.0 16.0 0.00 0.27 0.27 73 1018.7
20260904153342 76 29 13.0 16.0 0.00 0.27 0.27 74 1018.5
20260904152838 76 29 13.0 16.0 0.00 0.27 0.27 79 1018.8
20260904152332 76 29 13.0 16.0 0.00 0.27 0.27 81 1018.8
20260904151827 75 29 13.0 16.0 0.00 0.27 0.27 80 1018.8
20260904151326 75 29 13.0 16.0 0.00 0.27 0.27 84 1018.9
20260904150822 76 29 13.0 16.0 0.00 0.27 0.27 83 1018.7
20260904150317 75 29 13.0 16.0 0.00 0.27 0.27 82 1018.8
20260904145815 74 29 13.0 16.0 0.00 0.27 0.27 82 1018.8
20260904145312 74 29 13.0 16.0 0.00 0.27 0.27 89 1018.9
20260904144807 73 29 13.0 16.0 0.00 0.27 0.27 87 1018.6
20260904144302 74 29 13.0 16.0 0.00 0.27 0.27 91 1018.7
20260904143758 74 29 13.0 16.0 0.00 0.27 0.27 94 1018.5
20260904143254 72 29 13.0 16.0 0.00 0.27 0.27 94 1018.5
20260904142750 72 29 13.0 16.0 0.00 0.27 0.27 96 1018.7
20260904142246 72 29 13.0 16.0 0.00 0.27 0.27 97 1018.6
20260904141746 71 29 13.0 16.0 0.00 0.27 0.27 99 1018.9
20260904141241 71 29 13.0 16.0 0.00 0.27 0.27 99 1018.7
20260904140737 71 29 13.0 16.0 0.00 0.27 0.27 99 1018.5
20260904140232 71 29 13.0 16.0 0.00 0.27 0.27 99 1018.6
20260904135730 71 29 13.0 16.0 0.00 0.27 0.27 99 1018.6
20260904135226 71 29 13.0 16.0 0.00 0.27 0.27 99 1018.4
20260904134722 71 29 13.0 16.0 0.00 0.27 0.27 99 1018.6
20260904134221 71 29 13.0 16.0 0.00 0.27 0.27 99 1018.6
20260904133716 71 29 13.0 16.0 0.00 0.27 0.27 99 1018.5
20260904133213 71 29 13.0 16.0 0.00 0.27 0.27 99 1018.6
20260904132712 71 29 13.0 16.0 0.00 0.27 0.27 99 1018.4
20260904132208 71 29 13.0 16.0 0.00 0.27 0.27 99 1018.6
20260904131707 71 29 13.0 16.0 0.00 0.27 0.27 99 1018.6
20260904131203 71 29 13.0 16.0 0.00 0.27 0.27 99 1018.3
20260904130702 71 29 13.0 16.0 0.00 0.27 0.27 99 1018.5
20260904130202 70 29 13.0 16.0 0.00 0.27 0.27 99 1018.5
20260904125658 70 29 13.0 16.0 0.00 0.27 0.27 99 1018.6
20260904125154 70 29 13.0 16.0 0.00 0.27 0.27 99 1018.4
20260904124648 70 29 13.0 16.0 0.00 0.27 0.27 99 1018.5
20260904124144 69 29 13.0 16.0 0.00 0.27 0.27 99 1018.6
20260904123644 69 29 13.0 16.0 0.00 0.27 0.27 99 1018.6
20260904123141 69 29 13.0 16.0 0.00 0.27 0.27 99 1018.7
20260904122640 69 29 13.0 16.0 0.00 0.27 0.27 99 1018.4
20260904122135 69 29 13.0 16.0 0.00 0.27 0.27 99 1018.6
20260904121630 69 29 13.0 16.0 0.00 0.27 0.27 99 1018.6
20260904121126 68 29 13.0 16.0 0.00 0.27 0.27 99 1018.7
20260904120622 68 29 13.0 16.0 0.00 0.27 0.27 99 1018.6
20260904120119 68 29 13.0 16.0 0.00 0.27 0.27 99 1018.6
20260904115619 68 29 13.0 16.0 0.00 0.27 0.27 99 1018.7
20260904115114 68 29 13.0 16.0 0.00 0.27 0.27 99 1018.6
20260904114613 68 29 13.0 16.0 0.00 0.27 0.27 99 1018.7
20260904114109 67 29 13.0 16.0 0.00 0.27 0.27 99 1018.6
20260904113608 67 29 13.0 16.0 0.00 0.27 0.27 99 1018.6
20260904113108 67 29 13.0 16.0 0.00 0.27 0.27 99 1018.5
20260904112603 67 29 13.0 16.0 0.00 0.27 0.27 99 1018.5
20260904112059 67 29 13.0 16.0 0.00 0.27 0.27 99 1018.3
20260904111554 67 29 13.0 16.0 0.00 0.27 0.27 99 1018.0
20260904111050 67 29 13.0 16.0 0.00 0.27 0.27 99 1018.3
20260904110544 67 29 13.0 16.0 0.00 0.27 0.27 99 1018.3
20260904110040 67 29 13.0 16.0 0.00 0.27 0.27 99 1018.3
20260904105539 67 29 13.0 16.0 0.00 0.27 0.27 99 1018.2
20260904105034 67 29 13.0 16.0 0.00 0.27 0.27 99 1018.1
20260904104530 67 29 13.0 16.0 0.00 0.27 0.27 99 1018.1
20260904104026 67 29 13.0 16.0 0.00 0.27 0.27 99 1017.9
20260904103521 67 29 13.0 16.0 0.00 0.27 0.27 99 1017.8
20260904103017 67 29 13.0 16.0 0.00 0.27 0.27 99 1018.0
20260904102513 67 29 13.0 16.0 0.00 0.27 0.27 99 1017.9
20260904102003 67 29 13.0 16.0 0.00 0.27 0.27 99 1017.7
20260904101500 68 29 13.0 16.0 0.00 0.27 0.27 99 1017.9
20260904100955 68 29 13.0 16.0 0.00 0.27 0.27 99 1017.7
20260904100450 68 29 13.0 16.0 0.00 0.27 0.27 99 1017.6
20260904095949 68 29 13.0 16.0 0.00 0.27 0.27 99 1017.4
20260904095444 68 29 13.0 16.0 0.00 0.27 0.27 99 1017.3
20260904094944 68 29 13.0 16.0 0.00 0.27 0.27 99 1017.4
20260904094440 68 29 13.0 16.0 0.00 0.27 0.27 99 1017.4
20260904093936 68 29 13.0 16.0 0.00 0.27 0.27 99 1017.6
20260904093431 68 29 13.0 16.0 0.00 0.27 0.27 99 1017.8
20260904092926 68 29 13.0 16.0 0.00 0.27 0.27 99 1017.6
20260904092423 68 29 13.0 16.0 0.00 0.27 0.27 99 1017.7
20260904091913 68 29 13.0 16.0 0.00 0.27 0.27 99 1017.5
20260904091408 69 29 13.0 16.0 0.00 0.27 0.27 99 1017.4
20260904090903 69 29 13.0 16.0 0.00 0.27 0.27 99 1017.4
20260904090359 69 29 13.0 16.0 0.00 0.27 0.27 99 1017.4
20260904085849 69 29 13.0 16.0 0.00 0.27 0.27 99 1017.3
20260904085343 69 29 13.0 16.0 0.00 0.27 0.27 99 1017.1
20260904084838 69 29 13.0 16.0 0.00 0.27 0.27 99 1017.2
20260904084334 69 29 13.0 16.0 0.00 0.27 0.27 99 1017.0
20260904083830 69 29 13.0 16.0 0.00 0.27 0.27 99 1017.1
20260904083326 69 29 13.0 16.0 0.00 0.27 0.27 99 1016.9
20260904082822 69 29 13.0 16.0 0.00 0.27 0.27 99 1016.7
20260904082316 69 29 13.0 16.0 0.02 0.27 0.27 99 1016.5
20260904081811 69 29 13.0 16.0 0.05 0.27 0.27 99 1016.4
20260904081307 69 29 13.0 16.0 0.07 0.27 0.27 99 1016.3
20260904080803 69 29 13.0 16.0 0.09 0.26 0.26 99 1016.7
20260904080258 69 29 13.0 16.0 0.12 0.26 0.26 99 1017.0
20260904075754 69 29 13.0 16.0 0.09 0.24 0.24 99 1017.2
20260904075254 69 29 13.0 16.0 0.12 0.23 0.23 99 1017.5
20260904074747 69 29 13.0 16.0 0.61 0.23 0.23 99 1017.7
20260904074242 70 29 13.0 16.0 0.90 0.20 0.20 99 1017.8
20260904073737 70 29 13.0 16.0 0.59 0.11 0.11 99 1018.3
20260904073228 69 29 13.0 16.0 0.12 0.02 0.02 99 1018.3
20260904072724 69 29 13.0 16.0 0.07 0.01 0.01 99 1017.7
20260904072218 70 29 13.0 16.0 0.02 0.00 0.00 99 1017.4
20260904071714 71 29 13.0 16.0 0.00 0.00 0.00 99 1017.4
20260904071209 71 29 13.0 16.0 0.00 0.00 0.00 99 1017.1
20260904070709 71 29 13.0 16.0 0.00 0.00 0.00 99 1017.2
20260904070207 71 29 13.0 16.0 0.00 0.00 0.00 99 1017.3
20260904065702 71 29 13.0 16.0 0.00 0.00 0.00 99 1017.5
20260904065159 71 29 13.0 16.0 0.00 0.00 0.00 99 1017.5
20260904064653 71 29 13.0 16.0 0.00 0.00 0.00 99 1017.6
20260904064149 71 29 13.0 16.0 0.00 0.00 0.00 99 1017.6
20260904063645 71 29 13.0 16.0 0.00 0.00 0.00 99 1017.6
20260904063140 71 29 13.0 16.0 0.00 0.00 0.00 99 1017.7
20260904062636 71 29 13.0 16.0 0.00 0.00 0.00 99 1017.8
20260904062132 71 29 13.0 16.0 0.00 0.00 0.00 99 1017.5
20260904061627 71 29 13.0 16.0 0.00 0.00 0.00 99 1017.7
20260904061123 71 29 13.0 16.0 0.00 0.00 0.00 99 1018.0
20260904060620 71 29 13.0 16.0 0.00 0.00 0.00 99 1018.1
20260904060115 71 29 13.0 16.0 0.00 0.00 0.00 99 1018.0
20260904055610 70 29 13.0 16.0 0.00 0.00 0.00 99 1018.0
20260904055105 70 29 13.0 16.0 0.00 0.00 0.00 99 1018.2
20260904054601 70 29 13.0 16.0 0.00 0.00 0.00 99 1018.3
20260904054056 70 29 13.0 16.0 0.00 0.00 0.00 99 1018.1
20260904053555 70 29 13.0 16.0 0.00 0.00 0.00 99 1018.2
20260904053046 70 29 13.0 16.0 0.00 0.00 0.00 99 1018.3
20260904052542 71 29 13.0 16.0 0.00 0.00 0.00 99 1018.2
20260904052038 71 29 13.0 16.0 0.00 0.00 0.00 99 1018.1
20260904051534 70 29 13.0 16.0 0.00 0.00 0.00 99 1018.3
20260904051033 70 29 13.0 16.0 0.00 0.00 0.00 99 1018.3
20260904050529 71 29 13.0 16.0 0.00 0.00 0.00 99 1018.1
20260904050025 71 29 13.0 16.0 0.00 0.00 0.00 99 1018.0
20260904045520 71 29 13.0 16.0 0.00 0.00 0.00 99 1018.2
20260904045015 71 29 13.0 16.0 0.00 0.00 0.00 99 1018.4
20260904044511 71 29 13.0 16.0 0.00 0.00 0.00 99 1018.7
20260904044007 71 29 13.0 16.0 0.00 0.00 0.00 99 1018.9
20260904043503 71 29 13.0 16.0 0.00 0.00 0.00 99 1018.7
20260904042958 71 29 13.0 16.0 0.00 0.00 0.00 99 1018.8
20260904042455 71 29 13.0 16.0 0.00 0.00 0.00 99 1018.6
20260904041949 71 29 13.0 16.0 0.00 0.00 0.00 99 1018.9
20260904041446 71 29 13.0 16.0 0.00 0.00 0.00 99 1018.8
20260904040942 71 29 13.0 16.0 0.00 0.00 0.00 99 1018.7
20260904040441 71 29 13.0 16.0 0.00 0.00 0.00 99 1018.8
20260904035937 71 29 13.0 16.0 0.00 0.33 0.33 99 1018.9
20260904035433 71 29 13.0 16.0 0.00 0.33 0.33 99 1018.8
20260904034932 71 29 13.0 16.0 0.00 0.33 0.33 99 1018.7
20260904034427 71 29 13.0 16.0 0.00 0.33 0.33 99 1018.6
20260904033923 71 29 13.0 16.0 0.00 0.33 0.33 99 1018.9
20260904033419 71 29 13.0 16.0 0.00 0.33 0.33 99 1018.9
20260904032915 71 29 13.0 16.0 0.00 0.33 0.33 99 1018.9
20260904032410 71 29 13.0 16.0 0.00 0.33 0.33 99 1018.9
20260904031910 71 29 13.0 16.0 0.00 0.33 0.33 99 1018.9
20260904031405 71 29 13.0 16.0 0.00 0.33 0.33 99 1018.9
20260904030902 71 29 13.0 16.0 0.00 0.33 0.33 99 1019.2
20260904030357 71 29 13.0 16.0 0.00 0.33 0.33 99 1019.1
20260904025852 71 29 13.0 16.0 0.00 0.33 0.33 99 1019.3
20260904025348 71 29 13.0 16.0 0.00 0.33 0.33 99 1019.3
20260904024848 72 29 13.0 16.0 0.00 0.33 0.33 99 1019.4
20260904024343 72 29 13.0 16.0 0.00 0.33 0.33 99 1019.3
20260904023839 71 29 13.0 16.0 0.00 0.33 0.33 99 1019.5
20260904023335 71 29 13.0 16.0 0.00 0.33 0.33 99 1019.5
20260904022834 71 29 13.0 16.0 0.00 0.33 0.33 98 1019.4
20260904022331 72 29 13.0 16.0 0.00 0.33 0.33 98 1019.5
20260904021828 72 29 13.0 16.0 0.00 0.33 0.33 98 1019.6
20260904021327 72 29 13.0 16.0 0.00 0.33 0.33 98 1019.6
20260904020823 72 29 13.0 16.0 0.00 0.33 0.33 98 1019.8
20260904020318 72 29 13.0 16.0 0.00 0.33 0.33 98 1019.6
20260904015816 72 29 13.0 16.0 0.00 0.33 0.33 98 1019.7
20260904015312 72 29 13.0 16.0 0.00 0.33 0.33 98 1019.9
20260904014810 72 29 13.0 16.0 0.00 0.33 0.33 98 1019.6
20260904014311 72 29 13.0 16.0 0.00 0.33 0.33 98 1019.8
20260904013807 72 29 13.0 16.0 0.00 0.33 0.33 97 1019.9
20260904013302 72 29 13.0 16.0 0.00 0.33 0.33 97 1020.0
20260904012758 73 29 13.0 16.0 0.00 0.33 0.33 97 1019.9
20260904012253 73 29 13.0 16.0 0.00 0.33 0.33 97 1020.0
20260904011752 73 29 13.0 16.0 0.00 0.33 0.33 97 1019.9
20260904011247 73 29 13.0 16.0 0.00 0.33 0.33 97 1019.8
20260904010742 73 29 13.0 16.0 0.00 0.33 0.33 97 1019.8
20260904010238 73 29 13.0 16.0 0.00 0.33 0.33 97 1019.9
20260904005733 73 29 13.0 16.0 0.00 0.33 0.33 96 1019.8
20260904005229 73 29 13.0 16.0 0.00 0.33 0.33 96 1019.8
20260904004724 73 29 13.0 16.0 0.00 0.33 0.33 96 1019.6
20260904004220 73 29 13.0 16.0 0.00 0.33 0.33 96 1019.5
20260904003714 73 29 13.0 16.0 0.00 0.33 0.33 96 1019.5
20260904003210 73 29 13.0 16.0 0.00 0.33 0.33 96 1019.6
20260904002700 73 29 13.0 16.0 0.00 0.33 0.33 95 1019.5
20260904002155 73 29 13.0 16.0 0.00 0.33 0.33 95 1019.6
20260904001645 73 29 13.0 16.0 0.00 0.33 0.33 95 1019.8
20260904001144 74 29 13.0 16.0 0.00 0.33 0.33 96 1019.4
20260904000639 74 29 13.0 16.0 0.00 0.33 0.33 96 1019.6
20260904000134 74 29 13.0 16.0 0.00 0.33 0.33 96 1019.5
20260903235634 74 29 13.0 16.0 0.00 0.33 0.33 96 1019.1
20260903235130 74 29 13.0 16.0 0.00 0.33 0.33 95 1019.1
20260903234625 74 29 13.0 16.0 0.00 0.33 0.33 95 1019.0
20260903234121 74 29 13.0 16.0 0.00 0.33 0.33 95 1019.0
20260903233617 74 29 13.0 16.0 0.00 0.33 0.33 95 1019.1
20260903233113 75 29 13.0 16.0 0.00 0.33 0.33 95 1019.1
20260903232607 75 29 13.0 16.0 0.00 0.33 0.33 95 1019.1
20260903232103 75 29 13.0 16.0 0.00 0.33 0.33 95 1019.0
20260903231556 75 29 13.0 16.0 0.00 0.33 0.33 94 1019.0
20260903231051 75 29 13.0 16.0 0.00 0.33 0.33 94 1019.0
20260903230548 76 29 13.0 16.0 0.00 0.33 0.33 94 1019.1
20260903230045 76 29 13.0 16.0 0.00 0.33 0.33 93 1019.0
20260903225543 76 29 13.0 16.0 0.00 0.33 0.33 92 1018.9
20260903225040 76 29 13.0 16.0 0.00 0.33 0.33 92 1019.0
20260903224535 76 29 13.0 16.0 0.00 0.33 0.33 92 1019.0
20260903224032 76 29 13.0 16.0 0.00 0.33 0.33 92 1019.1
20260903223531 76 29 13.0 16.0 0.00 0.33 0.33 93 1019.1
20260903223030 76 29 13.0 16.0 0.00 0.33 0.33 93 1019.3
20260903222525 76 29 13.0 16.0 0.00 0.33 0.33 92 1019.2
20260903222024 76 29 13.0 16.0 0.00 0.33 0.33 91 1019.3
20260903221520 77 29 13.0 16.0 0.00 0.33 0.33 91 1019.3
20260903221016 77 29 13.0 16.0 0.00 0.33 0.33 91 1019.4
20260903220511 77 29 13.0 16.0 0.00 0.33 0.33 91 1019.4
20260903220010 77 29 13.0 16.0 0.00 0.33 0.33 90 1019.4
20260903215505 77 29 13.0 16.0 0.00 0.33 0.33 89 1019.4
20260903215004 78 29 13.0 16.0 0.00 0.33 0.33 88 1019.4
20260903214459 79 29 13.0 16.0 0.00 0.33 0.33 86 1019.4
20260903213958 79 29 13.0 16.0 0.00 0.33 0.33 86 1019.3
20260903213454 80 29 13.0 16.0 0.00 0.33 0.33 83 1019.4
20260903212950 81 29 13.0 16.0 0.00 0.33 0.33 84 1019.3
20260903212446 82 29 13.0 16.0 0.00 0.33 0.33 79 1019.3
20260903211945 83 29 13.0 16.0 0.00 0.33 0.33 77 1019.2
20260903211446 83 29 13.0 16.0 0.00 0.33 0.33 74 1019.1
20260903210943 85 29 13.0 16.0 0.00 0.33 0.33 76 1019.1
20260903210442 85 29 13.0 16.0 0.00 0.33 0.33 77 1018.9
20260903205937 84 29 13.0 16.0 0.00 0.33 0.33 73 1019.0
20260903205432 85 29 13.0 16.0 0.00 0.33 0.33 76 1019.2
20260903204927 83 29 13.0 16.0 0.00 0.33 0.33 75 1019.2
20260903204423 82 29 13.0 16.0 0.00 0.33 0.33 82 1019.3
20260903203918 82 29 13.0 16.0 0.00 0.33 0.33 78 1019.2
20260903203414 82 29 13.0 16.0 0.00 0.33 0.33 76 1019.3
20260903202913 83 29 13.0 16.0 0.00 0.33 0.33 76 1019.4
20260903202409 84 29 13.0 16.0 0.00 0.33 0.33 74 1019.2
20260903201909 82 29 13.0 16.0 0.00 0.33 0.33 77 1019.3
20260903201404 83 29 13.0 16.0 0.00 0.33 0.33 77 1019.5
20260903200903 82 29 13.0 16.0 0.00 0.33 0.33 77 1019.6
20260903200358 81 29 13.0 16.0 0.00 0.33 0.33 81 1019.6
20260903195853 82 29 13.0 16.0 0.00 0.33 0.33 78 1019.7
20260903195350 82 29 13.0 16.0 0.00 0.33 0.33 77 1019.5
20260903194844 82 29 13.0 16.0 0.00 0.33 0.33 77 1019.4
20260903194340 83 29 13.0 16.0 0.00 0.33 0.33 74 1019.4
20260903193835 83 29 13.0 16.0 0.00 0.33 0.33 74 1019.4
20260903193332 84 29 13.0 16.0 0.00 0.33 0.33 73 1019.7
20260903192827 83 29 13.0 16.0 0.00 0.33 0.33 78 1019.6
20260903192322 82 29 13.0 16.0 0.00 0.33 0.33 80 1019.5
20260903191818 81 29 13.0 16.0 0.00 0.33 0.33 80 1019.6
20260903191313 81 29 13.0 16.0 0.00 0.33 0.33 79 1019.8
20260903190807 80 29 13.0 16.0 0.00 0.33 0.33 77 1019.7
20260903190302 81 29 13.0 16.0 0.00 0.33 0.33 75 1019.8
20260903185756 85 29 13.0 16.0 0.00 0.33 0.33 73 1020.1
20260903185251 84 29 13.0 16.0 0.00 0.33 0.33 74 1019.8
20260903184748 82 29 13.0 16.0 0.00 0.33 0.33 76 1019.9
20260903184243 84 29 13.0 16.0 0.00 0.33 0.33 73 1019.8
20260903183738 83 29 13.0 16.0 0.00 0.33 0.33 75 1019.9
20260903183233 81 29 13.0 16.0 0.00 0.33 0.33 77 1019.9
20260903182732 82 29 13.0 16.0 0.00 0.33 0.33 78 1020.0
20260903182227 80 29 13.0 16.0 0.00 0.33 0.33 77 1020.1